Location: Milton Keynes
(52.0316°N, 0.7531°W)
Time: 13:57:09
(UTC+01:00)

Envisat - Pass Details

Date: 28 January 2019
Orbit: 764 x 766 km, 98.2° (Epoch: 19 April)

Event Time Altitude Azimuth Distance (km) Brightness Sun altitude
Rises 18:06:09 0° 151° (SSE) 3,221 6.1 -12.7°
Reaches altitude 10° 18:08:28 10° 148° (SSE) 2,299 5.3 -13.1°
Maximum altitude 18:13:27 59° 69° (ENE) 884 3.0 -13.8°
Drops below altitude 10° 18:18:27 10° 351° (N) 2,317 5.5 -14.6°
Sets 18:20:48 0° 348° (NNW) 3,248 6.3 -14.9°
